Flag for U.S.A. Weather past 2 weeks in Lakewood, Colorado, U.S.A.

Now
39 °F

Passing clouds.


Feels Like: 35 °F
Forecast: 43 / 63 °F
Wind: 6 mph from South

Location: Centennial Airport

Current Time: Apr 25, 2015 at 5:21:26 AM

Latest Report: Apr 25, 2015 at 4:53 AM


Visibility: 10 mi

Pressure: 29.70 "Hg

Humidity: 60%

Dew point: 26 °F

Location of LakewoodLocation

Historic Weather in Lakewood — Graph

°F

Lakewood temperature yesterday

Maximum temperature yesterday: 62 °F (at 11:53 AM)
Minimum temperature yesterday: 38 °F (at 5:53 AM)
Average temperature yesterday: 50 °F

Past Weeks' High & Low Weather Summary

 TemperatureHumidityPressure
High73 °F (Apr 14, 1:53 PM)100% (Apr 16, 8:53 AM)30.21 "Hg (Apr 16, 8:53 AM)
Low31 °F (Apr 16, 7:02 AM)9% (Apr 14, 1:53 PM)29.50 "Hg (Apr 15, 3:53 AM)
Average48 °F53%29.90 "Hg
* Reported Apr 10 3:53 AM — Apr 25 3:53 AM, Lakewood, Weather by CustomWeather, © 2015

Note: Actual official high and low records may vary slightly from our data, if they occured in-between our weather recording intervals... More about our weather records

Advertising

Lakewood weather history for previous 24 hours

 ConditionsComfort  
Time TempWeatherWind HumidityBarometerVisibility
3:53 AM
Sat, Apr 25
37 °FPassing clouds.6 mph65%29.66 "Hg10 mi
2:53 AM43 °FPassing clouds.8 mph51%29.62 "Hg10 mi
1:53 AM42 °FPassing clouds.10 mph55%29.63 "Hg10 mi
12:53 AM43 °FPassing clouds.6 mph51%29.63 "Hg10 mi
11:53 PM
Fri, Apr 24
44 °FPassing clouds.10 mph55%29.62 "Hg10 mi
10:53 PM44 °FPassing clouds.5 mph58%29.62 "Hg10 mi
9:53 PM44 °FPassing clouds.3 mph60%29.64 "Hg10 mi
8:53 PM49 °FPartly cloudy.9 mph52%29.60 "Hg10 mi
7:53 PM52 °FBroken clouds.8 mph47%29.59 "Hg10 mi
6:53 PM54 °FBroken clouds.14 mph41%29.62 "Hg10 mi
4:53 PM53 °FBroken clouds.14 mph45%29.61 "Hg10 mi
3:53 PM60 °FBroken clouds.14 mph27%29.56 "Hg10 mi
2:53 PM61 °FBroken clouds.3 mph24%29.56 "Hg10 mi
1:53 PM61 °FBroken clouds.3 mph25%29.57 "Hg10 mi
12:53 PM61 °FBroken clouds.7 mph24%29.58 "Hg10 mi
11:53 AM62 °FBroken clouds.7 mph22%29.58 "Hg10 mi
10:53 AM61 °FBroken clouds.9 mph26%29.60 "Hg10 mi
9:53 AM58 °FScattered clouds.3 mph28%29.60 "Hg10 mi
8:53 AM55 °FScattered clouds.6 mph31%29.62 "Hg10 mi
7:53 AM51 °FScattered clouds.9 mph41%29.66 "Hg10 mi
6:53 AM42 °FPassing clouds.8 mph60%29.68 "Hg10 mi
5:53 AM38 °FPassing clouds.9 mph65%29.70 "Hg10 mi
Weather by CustomWeather, © 2015

See weather overviewHow to use our weather pages